Orbital Elements at Epoch 2459200.5 (2020-Dec-17.0) TDB
Reference: JPL 15 (heliocentric ecliptic J2000)
Element | Value | Uncertainty (1-sigma) | Units |
e | .08064403073488781 | 5.8159e-08 | |
a | 2.85252161857049 | 2.7242e-08 | au |
q | 2.622482777490559 | 1.7516e-07 | au |
i | 3.108659350610552 | 5.2594e-06 | deg |
node | 99.70736810342918 | 0.00011423 | deg |
peri | 263.8882844475249 | 0.00011848 | deg |
M | 154.521247646849 | 3.2364e-05 | deg |
tp | 2458445.185974940951 (2018-Nov-22.68597494) | 0.0001571 | TDB |
period | 1759.7130049241 4.82 | 2.5208e-05 6.902e-08 | d yr |
n | .2045788142683685 | 2.9306e-09 | deg/d |
Q | 3.08256045965042 | 2.9438e-08 | au |
|
| | Orbit Determination Parameters
Additional Information
|